Chicopee, MA

2:13 PM EDT on May 26, 2017 (GMT -0400)
Westover Air Reserve Base / Metropolitan Airport

Weather History for KCEF - December, 2012

Change the Weather History Date:

Wednesday, December 26, 2012

  Actual Average Record
Temperature  
Mean Temperature 26 °F -  
Max Temperature 33 °F 34 °F 52 °F (2015)
Min Temperature 18 °F 19 °F 5 °F (2000)
Degree Days  
Heating Degree Days 40    
Moisture  
Dew Point 27 °F    
Average Humidity 89    
Maximum Humidity 100    
Minimum Humidity 55    
Precipitation  
Precipitation 0.00 in - - ()
Sea Level Pressure  
Sea Level Pressure 30.00 in    
Wind  
Wind Speed 9 mph (NE)    
Max Wind Speed 16 mph    
Max Gust Speed 17 mph    
Visibility 4 miles    
Events Rain , Snow    
Averages and records for this station are not official NWS values.
T = Trace of Precipitation, MM = Missing Value Source: NWS Daily Summary

Daily Weather History Graph

Daily Weather History Graph

Search for Another Location

Airport or City:

Trip Planner

Search our weather history database for the weather conditions in past years. The results will help you decide how hot, cold, wet, or windy it might be!

Date:

Astronomy

Dec. 26, 2012 Rise Set
Actual Time 7:17 AM EST 4:24 PM EST
Civil Twilight 6:45 AM EST 4:56 PM EST
Nautical Twilight 6:10 AM EST 5:31 PM EST
Astronomical Twilight 5:36 AM EST 6:05 PM EST
Moon 3:16 PM EST 5:38 AM EST
Length of Visible Light 10h 10m
Length of Day
9h 06m
Waxing Gibbous, 97% of the Moon is Illuminated
Dec 26
Waxing Gibbous
Dec 28
Full
Jan 4
Last Quarter
Jan 11
New
Jan 18
First Quarter

Hourly Weather History & Observations

Time (EST) Temp. Windchill Dew Point Humidity Pressure Visibility Wind Dir Wind Speed Gust Speed Precip Events Conditions
12:55 AM 19.0 °F - 14.0 °F 81% 30.27 in 10.0 mi Calm Calm - N/A   Clear
1:55 AM 19.6 °F 10.6 °F 13.1 °F 76% 30.30 in 10.0 mi North 6.9 mph - N/A   Clear
2:55 AM 20.7 °F 11.0 °F 13.6 °F 74% 30.31 in 10.0 mi North 8.1 mph - N/A   Clear
3:55 AM 21.2 °F 13.6 °F 13.8 °F 73% 30.31 in 10.0 mi North 5.8 mph - N/A   Clear
4:55 AM 18.9 °F 9.8 °F 12.7 °F 77% 30.29 in 10.0 mi North 6.9 mph - N/A   Clear
5:55 AM 19.4 °F 10.4 °F 12.4 °F 74% 30.29 in 10.0 mi North 6.9 mph - N/A   Clear
6:55 AM 18.7 °F 11.9 °F 11.5 °F 74% 30.30 in 10.0 mi North 4.6 mph - N/A   Clear
7:55 AM 19.2 °F 11.3 °F 12.0 °F 74% 30.32 in 10.0 mi NNE 5.8 mph - N/A   Partly Cloudy
8:55 AM 20.5 °F 10.8 °F 12.4 °F 71% 30.32 in 10.0 mi NNE 8.1 mph - N/A   Clear
9:55 AM 23.4 °F 15.2 °F 12.9 °F 64% 30.33 in 10.0 mi NE 6.9 mph - N/A   Clear
10:55 AM 25.0 °F 16.3 °F 14.0 °F 63% 30.29 in 10.0 mi NNE 8.1 mph - N/A   Partly Cloudy
11:55 AM 27.1 °F 18.9 °F 14.9 °F 60% 30.26 in 10.0 mi NNE 8.1 mph - N/A   Partly Cloudy
12:55 PM 28.9 °F 20.4 °F 16.0 °F 58% 30.21 in 10.0 mi NNE 9.2 mph - N/A   Mostly Cloudy
1:55 PM 30.2 °F 23.4 °F 16.5 °F 57% 30.20 in 10.0 mi North 6.9 mph - N/A   Scattered Clouds
2:55 PM 30.6 °F 23.8 °F 17.4 °F 58% 30.19 in 10.0 mi NNE 6.9 mph - N/A   Mostly Cloudy
3:55 PM 30.6 °F 24.7 °F 18.5 °F 61% 30.18 in 10.0 mi NNE 5.8 mph - N/A   Mostly Cloudy
4:55 PM 31.8 °F 25.4 °F 17.6 °F 56% 30.16 in 10.0 mi ENE 6.9 mph - N/A   Overcast
5:36 PM 32.0 °F 24.2 °F 17.6 °F 55% 30.12 in 10.0 mi ENE 9.2 mph - N/A   Overcast
5:55 PM 31.6 °F 23.7 °F 17.8 °F 57% 30.11 in 10.0 mi ENE 9.2 mph - N/A   Overcast
6:55 PM 31.8 °F 24.6 °F 22.1 °F 67% 30.08 in 10.0 mi ENE 8.1 mph - N/A   Overcast
7:27 PM 32.0 °F 23.6 °F 24.8 °F 75% 30.06 in 10.0 mi East 10.4 mph 17.3 mph N/A   Overcast
7:40 PM 33.8 °F 26.4 °F 24.8 °F 70% 30.06 in 10.0 mi East 9.2 mph - N/A Snow Light Snow
7:50 PM 32.0 °F 23.6 °F 26.6 °F 80% 30.05 in 2.5 mi ENE 10.4 mph - N/A Snow Light Snow
7:51 PM 32.0 °F 24.8 °F 26.6 °F 80% 30.05 in 2.0 mi ENE 8.1 mph - N/A Snow Light Snow
7:53 PM 32.0 °F 24.2 °F 26.6 °F 80% 30.05 in 1.8 mi ENE 9.2 mph - N/A Snow Light Snow
7:55 PM 32.4 °F 24.0 °F 27.1 °F 81% 30.04 in 1.5 mi ENE 10.4 mph - 0.00 in Snow Light Snow
7:56 PM 32.0 °F 24.2 °F 26.6 °F 80% 30.05 in 1.2 mi ENE 9.2 mph - N/A Snow Light Snow
7:58 PM 32.0 °F 23.6 °F 28.4 °F 87% 30.04 in 1.2 mi ENE 10.4 mph - N/A Snow Light Snow
7:59 PM 32.0 °F 23.6 °F 28.4 °F 87% 30.04 in 1.0 mi ENE 10.4 mph - N/A Snow Light Snow
8:06 PM 32.0 °F 24.2 °F 28.4 °F 87% 30.03 in 1.0 mi ENE 9.2 mph - N/A Snow Light Snow
8:08 PM 30.2 °F 21.3 °F 28.4 °F 93% 30.04 in 1.0 mi NE 10.4 mph - N/A Snow Light Snow
8:09 PM 30.2 °F 21.9 °F 28.4 °F 93% 30.03 in 0.8 mi NE 9.2 mph - N/A Snow Light Snow
8:10 PM 30.2 °F 21.9 °F 28.4 °F 93% 30.03 in 1.0 mi NE 9.2 mph - N/A Snow Light Snow
8:11 PM 30.2 °F 21.3 °F 28.4 °F 93% 30.03 in 1.0 mi NE 10.4 mph - N/A Snow Light Snow
8:16 PM 30.2 °F 21.9 °F 28.4 °F 93% 30.03 in 1.0 mi ENE 9.2 mph - N/A Snow Light Snow
8:17 PM 30.2 °F 21.9 °F 28.4 °F 93% 30.03 in 1.0 mi NE 9.2 mph - N/A Snow Light Snow
8:18 PM 30.2 °F 21.3 °F 28.4 °F 93% 30.03 in 1.0 mi NE 10.4 mph - N/A Snow Light Snow
8:19 PM 30.2 °F 20.8 °F 28.4 °F 93% 30.03 in 1.0 mi NE 11.5 mph - N/A Snow Light Snow
8:20 PM 30.2 °F 20.8 °F 28.4 °F 93% 30.02 in 1.2 mi NE 11.5 mph - N/A Snow Light Snow
8:23 PM 30.2 °F 21.3 °F 28.4 °F 93% 30.02 in 1.5 mi NE 10.4 mph - N/A Snow Light Snow
8:30 PM 30.2 °F 21.3 °F 30.2 °F 100% 30.02 in 1.5 mi NE 10.4 mph - N/A Snow Light Snow
8:32 PM 30.2 °F 21.3 °F 30.2 °F 100% 30.02 in 1.8 mi NE 10.4 mph - N/A Snow Light Snow
8:36 PM 30.2 °F 22.6 °F 30.2 °F 100% 30.02 in 1.8 mi ENE 8.1 mph - N/A Snow Light Snow
8:38 PM 30.2 °F 21.3 °F 30.2 °F 100% 30.01 in 1.8 mi NE 10.4 mph - N/A Snow Light Snow
8:39 PM 30.2 °F 21.3 °F 30.2 °F 100% 30.01 in 2.0 mi NE 10.4 mph - N/A Snow Light Snow
8:47 PM 30.2 °F 20.8 °F 30.2 °F 100% 30.00 in 1.8 mi NE 11.5 mph - N/A Snow Light Snow
8:53 PM 30.2 °F 21.3 °F 30.2 °F 100% 29.99 in 1.5 mi NE 10.4 mph - N/A Snow Light Snow
8:55 PM 30.9 °F 21.7 °F 29.7 °F 95% 29.99 in 1.5 mi NE 11.5 mph - 0.00 in Snow Light Snow
9:01 PM 32.0 °F 23.0 °F 30.2 °F 93% 29.98 in 1.5 mi NE 11.5 mph - N/A Snow Light Snow
9:02 PM 32.0 °F 23.0 °F 30.2 °F 93% 29.98 in 1.2 mi NE 11.5 mph - N/A Snow Light Snow
9:04 PM 32.0 °F 22.5 °F 30.2 °F 93% 29.98 in 1.2 mi NE 12.7 mph - N/A Snow Light Snow
9:08 PM 32.0 °F 22.5 °F 30.2 °F 93% 29.97 in 1.2 mi NE 12.7 mph - N/A Snow Light Snow
9:09 PM 32.0 °F 22.5 °F 30.2 °F 93% 29.97 in 1.0 mi NE 12.7 mph - N/A Snow Light Snow
9:10 PM 32.0 °F 22.5 °F 30.2 °F 93% 29.97 in 1.0 mi NE 12.7 mph - N/A Snow Light Snow
9:14 PM 32.0 °F 22.5 °F 30.2 °F 93% 29.96 in 1.0 mi NE 12.7 mph - N/A Snow Light Snow
9:15 PM 32.0 °F 22.5 °F 30.2 °F 93% 29.96 in 0.8 mi NE 12.7 mph - N/A Snow Light Snow
9:18 PM 32.0 °F 22.1 °F 30.2 °F 93% 29.96 in 0.8 mi NE 13.8 mph - N/A Snow Light Snow
9:20 PM 32.0 °F 21.6 °F 30.2 °F 93% 29.96 in 0.8 mi NE 15.0 mph - N/A Snow Light Snow
9:24 PM 32.0 °F 23.0 °F 30.2 °F 93% 29.96 in 0.8 mi ENE 11.5 mph - N/A Snow Light Snow
9:27 PM 32.0 °F 22.1 °F 30.2 °F 93% 29.96 in 1.0 mi NE 13.8 mph - N/A Snow Light Snow
9:33 PM 32.0 °F 22.5 °F 30.2 °F 93% 29.95 in 1.2 mi ENE 12.7 mph - N/A Snow Light Snow
9:38 PM 32.0 °F 21.6 °F 30.2 °F 93% 29.94 in 1.0 mi NE 15.0 mph - N/A Snow Light Snow
9:45 PM 32.0 °F 21.6 °F 30.2 °F 93% 29.93 in 1.0 mi ENE 15.0 mph - N/A Snow Light Snow
9:46 PM 32.0 °F 21.2 °F 30.2 °F 93% 29.93 in 0.8 mi ENE 16.1 mph - N/A Snow Light Snow
9:47 PM 32.0 °F 21.2 °F 30.2 °F 93% 29.93 in 0.8 mi ENE 16.1 mph - N/A Snow Light Snow
9:53 PM 32.0 °F 22.1 °F 30.2 °F 93% 29.92 in 0.8 mi ENE 13.8 mph - N/A Snow Light Snow
9:55 PM 31.8 °F 22.3 °F 30.7 °F 96% 29.92 in 0.8 mi ENE 12.7 mph - 0.00 in Snow Light Snow
9:57 PM 32.0 °F 22.1 °F 30.2 °F 93% 29.92 in 1.0 mi ENE 13.8 mph - N/A Snow Light Snow
10:02 PM 32.0 °F 22.5 °F 30.2 °F 93% 29.92 in 1.0 mi NE 12.7 mph - N/A Snow Light Snow
10:06 PM 32.0 °F 22.5 °F 30.2 °F 93% 29.92 in 1.0 mi NE 12.7 mph - N/A Snow Light Snow
10:07 PM 32.0 °F 23.0 °F 30.2 °F 93% 29.92 in 1.2 mi NE 11.5 mph - N/A Snow Light Snow
10:08 PM 32.0 °F 23.0 °F 30.2 °F 93% 29.91 in 1.2 mi NE 11.5 mph - N/A Snow Light Snow
10:09 PM 32.0 °F 22.5 °F 30.2 °F 93% 29.91 in 1.2 mi NE 12.7 mph - N/A Snow Light Snow
10:11 PM 32.0 °F 22.5 °F 30.2 °F 93% 29.91 in 1.5 mi ENE 12.7 mph - N/A Snow Light Snow
10:14 PM 32.0 °F 22.5 °F 30.2 °F 93% 29.92 in 1.8 mi ENE 12.7 mph - N/A Snow Light Snow
10:17 PM 32.0 °F 23.0 °F 30.2 °F 93% 29.92 in 2.0 mi NE 11.5 mph - N/A Snow Light Snow
10:21 PM 32.0 °F 23.0 °F 30.2 °F 93% 29.92 in 2.0 mi ENE 11.5 mph - N/A Snow Light Snow
10:23 PM 32.0 °F 22.5 °F 30.2 °F 93% 29.92 in 2.0 mi ENE 12.7 mph - N/A Snow Light Snow
10:26 PM 32.0 °F 23.0 °F 30.2 °F 93% 29.92 in 1.8 mi ENE 11.5 mph - N/A Snow Light Snow
10:30 PM 32.0 °F 23.6 °F 32.0 °F 100% 29.92 in 1.5 mi ENE 10.4 mph - N/A Snow Light Snow
10:33 PM 32.0 °F 23.6 °F 32.0 °F 100% 29.91 in 1.2 mi ENE 10.4 mph - N/A Snow Light Snow
10:35 PM 32.0 °F 24.8 °F 32.0 °F 100% 29.92 in 1.2 mi ENE 8.1 mph - N/A Snow Light Snow
10:36 PM 32.0 °F 26.4 °F 32.0 °F 100% 29.92 in 1.0 mi ENE 5.8 mph - N/A Snow Light Snow
10:38 PM 32.0 °F 26.4 °F 32.0 °F 100% 29.92 in 1.0 mi ENE 5.8 mph - N/A Snow Light Snow
10:39 PM 32.0 °F 24.8 °F 32.0 °F 100% 29.92 in 1.0 mi ENE 8.1 mph - N/A Snow Light Snow
10:43 PM 32.0 °F 23.6 °F 32.0 °F 100% 29.91 in 1.0 mi ENE 10.4 mph - N/A Snow Light Snow
10:46 PM 32.0 °F 22.1 °F 32.0 °F 100% 29.91 in 1.2 mi ENE 13.8 mph - N/A Snow Light Snow
10:50 PM 32.0 °F 23.6 °F 32.0 °F 100% 29.90 in 1.2 mi ENE 10.4 mph - N/A Snow Light Snow
10:55 PM 32.5 °F 24.2 °F 31.8 °F 97% 29.90 in 1.2 mi ENE 10.4 mph - 0.00 in Snow Light Snow
10:57 PM 32.0 °F 23.0 °F 32.0 °F 100% 29.90 in 1.2 mi ENE 11.5 mph - N/A Snow Light Snow
10:59 PM 32.0 °F 23.6 °F 32.0 °F 100% 29.90 in 1.2 mi ENE 10.4 mph - N/A Snow Light Snow
11:02 PM 32.0 °F 23.0 °F 32.0 °F 100% 29.90 in 1.5 mi ENE 11.5 mph - N/A Snow Light Snow
11:05 PM 32.0 °F 23.6 °F 32.0 °F 100% 29.89 in 1.8 mi NE 10.4 mph - N/A Snow Light Snow
11:10 PM 32.0 °F 23.0 °F 32.0 °F 100% 29.89 in 2.0 mi NE 11.5 mph - N/A Snow Light Snow
11:14 PM 32.0 °F 22.5 °F 32.0 °F 100% 29.88 in 1.8 mi ENE 12.7 mph - N/A Snow Light Snow
11:18 PM 32.0 °F 22.1 °F 32.0 °F 100% 29.87 in 2.0 mi NE 13.8 mph - N/A Snow Light Snow
11:30 PM 32.0 °F 22.1 °F 32.0 °F 100% 29.84 in 2.5 mi ENE 13.8 mph - N/A Snow Light Snow
11:31 PM 32.0 °F 22.1 °F 32.0 °F 100% 29.84 in 2.5 mi ENE 13.8 mph - N/A Snow Light Snow
11:33 PM 32.0 °F 22.1 °F 32.0 °F 100% 29.83 in 2.5 mi ENE 13.8 mph - N/A Rain Light Freezing Rain
11:36 PM 32.0 °F 21.6 °F 32.0 °F 100% 29.83 in 3.0 mi NE 15.0 mph - N/A Rain Light Freezing Rain
11:39 PM 33.8 °F 24.3 °F 32.0 °F 93% 29.83 in 3.0 mi ENE 13.8 mph - N/A Rain Light Freezing Rain
11:44 PM 33.8 °F 25.3 °F 32.0 °F 93% 29.82 in 5.0 mi ENE 11.5 mph - N/A Rain Light Freezing Rain
11:49 PM 33.8 °F 24.3 °F 32.0 °F 93% 29.81 in 6.0 mi NE 13.8 mph - N/A Rain Light Rain
11:51 PM 33.8 °F 24.3 °F 32.0 °F 93% 29.81 in 7.0 mi NE 13.8 mph - N/A Rain Light Rain
11:53 PM 33.8 °F 24.8 °F 32.0 °F 93% 29.80 in 7.0 mi ENE 12.7 mph - N/A Rain Light Rain
11:55 PM 33.4 °F 24.3 °F 32.0 °F 94% 29.80 in 7.0 mi ENE 12.7 mph - 0.00 in Rain Light Rain
11:56 PM 33.8 °F 24.8 °F 32.0 °F 93% 29.80 in 8.0 mi ENE 12.7 mph - N/A Rain Light Rain
11:58 PM 33.8 °F 24.8 °F 32.0 °F 93% 29.79 in 8.0 mi ENE 12.7 mph - N/A Rain Light Rain
11:59 PM 33.8 °F 24.8 °F 32.0 °F 93% 29.79 in 8.0 mi ENE 12.7 mph - N/A Rain Light Rain